Regional Weather Roundup
Issued by NWS

Home | Current Version | Previous Version | Text Only | Print | Product List | Glossary Off
Versions: 1 2 3 4 5 6 7 8 9 10 11 12 13 14 15 16 17 18 19 20 21 22 23 24 25 26 27 28 29 30 31 32 33 34 35 36 37 38 39 40 41 42 43 44 45 46 47 48 49 50

000
ASUS43 KLMK 300310
RWRKY
KENTUCKY REGIONAL WEATHER ROUNDUP
NATIONAL WEATHER SERVICE LOUISVILLE KY
1100 PM EDT SAT AUG 29 2015

NOTE "FAIR" INDICATES FEW OR NO CLOUDS BELOW 12,000 FEET
WITH NO SIGNIFICANT WEATHER AND/OR OBSTRUCTIONS TO VISIBILITY.

KYZ001>023-026-027-061>063-070>075-300400-
WESTERN AND SOUTH CENTRAL KENTUCKY

CITY           SKY/WX    TMP DP  RH WIND       PRES   REMARKS
PADUCAH        CLOUDY    73  70  90 CALM      30.03R
HENDERSON      MOCLDY    72  66  83 CALM      30.03R
OWENSBORO      PTCLDY    74  69  84 SE6       30.06R
HOPKINSVILLE   MOCLDY    77  69  77 S10       30.07R
BOWLING GREEN  PTCLDY    75  68  78 S9        30.10R
GLASGOW        MOCLDY    73  70  90 CALM      30.11R
$$

KYZ024-025-028>034-038-045-046-053-300400-
NORTH CENTRAL KENTUCKY

CITY           SKY/WX    TMP DP  RH WIND       PRES   REMARKS
LOUISVILLE/SDF MOCLDY    77  67  71 S6        30.07R
LOUISVILLE/LOU PTCLDY    76  66  71 S3        30.08R
FORT KNOX      PTCLDY    72  68  88 S5        30.08R
$$

KYZ035>037-039>044-047>052-055>060-089>105-300400-
NORTHEAST KENTUCKY

CITY           SKY/WX    TMP DP  RH WIND       PRES   REMARKS
LEXINGTON      CLEAR     73  67  81 S5        30.12R
COVINGTON      PTCLDY    70  66  87 S5        30.08S
FRANKFORT      CLEAR     72  65  78 S3        30.09R
$$

KYZ054-064>069-076>088-106>120-300400-
SOUTHEAST KENTUCKY

CITY           SKY/WX    TMP DP  RH WIND       PRES   REMARKS
JACKSON        CLEAR     73  63  70 S3        30.15R
LONDON         CLEAR     72  65  78 CALM      30.15R
SOMERSET       CLEAR     70  70 100 CALM      30.14S
MIDDLESBORO    PTCLDY    68  66  91 CALM      30.17R
MONTICELLO     PTCLDY    70  70 100 CALM      30.16R
$$




USA.gov is the U.S. government's official web portal to all federal, state and local government web resources and services.